Temp
-2 -2 -3 -3 -4 -3 -3 -3 -3 -4 -4 -3 -3 -3 -4 -4 -4 -3 -3 -3 -2 -1 -0 0 0 0 -0
-3 -4 -4 -5 -5 -5 -6 -6 -6 -6 -6 -6 -5 -5 -5 -5 -5 -5 -4 -4 -4 -3 -2 -2 -1 -1 -1
-6 -6 -7 -8 -8 -8 -8 -8 -8 -9 -9 -8 -8 -7 -7 -7 -6 -6 -6 -5 -5 -4 -4 -3 -3 -3 -2
-8 -8 -9 -9 -10 -10 -9 -9 -10 -10 -10 -10 -10 -10 -9 -9 -9 -7 -6 -6 -6 -5 -5 -4 -4 -4 -3
-10 -10 -10 -10 -11 -11 -11 -12 -12 -12 -12 -12 -12 -11 -11 -11 -10 -10 -9 -8 -7 -6 -6 -6 -5 -5 -5
-12 -12 -11 -12 -12 -13 -13 -13 -13 -13 -13 -12 -13 -12 -12 -11 -11 -11 -10 -9 -8 -7 -6 -6 -6 -6 -6
-13 -13 -13 -14 -14 -14 -14 -14 -14 -14 -14 -13 -13 -13 -12 -12 -12 -12 -11 -10 -10 -9 -8 -6 -6 -6 -6
-14 -14 -15 -15 -15 -15 -15 -15 -14 -14 -15 -14 -13 -13 -13 -13 -13 -12 -11 -11 -10 -10 -10 -9 -8 -6 -6
-15 -15 -15 -16 -16 -15 -15 -15 -15 -15 -15 -15 -14 -14 -13 -13 -13 -13 -12 -12 -11 -10 -10 -10 -9 -8 -7
-15 -15 -15 -16 -16 -16 -15 -16 -15 -15 -15 -15 -15 -14 -13 -13 -14 -13 -12 -11 -11 -11 -10 -10 -9 -9 -8
-15 -15 -16 -16 -16 -16 -16 -16 -16 -15 -15 -15 -15 -14 -15 -14 -13 -14 -13 -12 -11 -11 -10 -10 -9 -9 -8
-16 -16 -16 -16 -16 -16 -16 -16 -16 -16 -16 -16 -15 -15 -15 -14 -14 -14 -14 -13 -12 -12 -11 -10 -10 -10 -9
-16 -16 -16 -16 -16 -16 -16 -16 -16 -16 -16 -16 -16 -15 -15 -15 -15 -14 -13 -13 -12 -12 -12 -11 -10 -10 -10
-17 -17 -16 -16 -16 -16 -16 -16 -15 -16 -16 -16 -16 -15 -15 -15 -15 -14 -14 -13 -13 -12 -12 -12 -11 -11 -11
-17 -17 -17 -16 -16 -16 -16 -15 -15 -15 -16 -16 -16 -15 -15 -15 -15 -15 -14 -14 -13 -13 -12 -12 -12 -11 -11
-17 -17 -17 -16 -16 -16 -16 -16 -15 -16 -16 -16 -16 -16 -15 -15 -16 -15 -14 -14 -14 -13 -13 -12 -12 -12 -12
-18 -17 -17 -17 -17 -16 -16 -16 -16 -16 -16 -16 -16 -16 -15 -15 -16 -16 -15 -14 -14 -14 -13 -13 -12 -12 -12
Height
3023 3020 3017 3014 3010 3009 3012 3008 3004 3001 2998 2996 2996 2996 2994 2993 2994 2995 2996 2996 2996 2998 3000 3001 3003 3004 3006
3011 3008 3004 3000 2996 2992 2989 2987 2986 2987 2984 2982 2980 2980 2980 2979 2978 2979 2981 2982 2983 2984 2985 2988 2990 2993 2995
2997 2994 2989 2986 2982 2978 2975 2972 2971 2969 2967 2967 2965 2964 2964 2964 2964 2965 2965 2967 2968 2970 2973 2976 2977 2980 2983
2986 2981 2977 2975 2970 2964 2961 2961 2958 2958 2956 2954 2951 2949 2949 2947 2947 2948 2949 2951 2954 2956 2958 2962 2965 2969 2971
2975 2970 2967 2964 2959 2955 2950 2947 2946 2945 2942 2942 2940 2939 2937 2934 2933 2933 2933 2935 2937 2940 2943 2947 2952 2956 2960
2963 2959 2956 2952 2949 2946 2941 2939 2934 2939 2931 2930 2929 2927 2925 2923 2921 2919 2920 2922 2923 2924 2929 2934 2939 2944 2948
2953 2951 2946 2943 2940 2936 2934 2931 2928 2927 2920 2917 2919 2916 2913 2912 2911 2908 2908 2909 2910 2911 2911 2917 2925 2932 2937
2946 2943 2939 2935 2931 2927 2924 2922 2920 2919 2915 2909 2908 2905 2905 2903 2901 2899 2897 2898 2899 2900 2903 2903 2907 2917 2926
2938 2935 2931 2928 2924 2920 2917 2914 2911 2910 2908 2902 2901 2897 2896 2895 2892 2890 2888 2888 2888 2890 2894 2898 2898 2902 2909
2931 2928 2925 2921 2917 2914 2910 2907 2904 2901 2900 2897 2894 2891 2886 2887 2884 2882 2879 2879 2879 2881 2884 2888 2889 2890 2893
2920 2918 2916 2913 2910 2907 2904 2901 2898 2895 2894 2888 2888 2886 2882 2877 2877 2876 2873 2872 2872 2872 2874 2878 2879 2883 2888
2912 2910 2907 2904 2902 2899 2896 2894 2890 2887 2886 2881 2879 2878 2876 2872 2870 2870 2868 2867 2866 2867 2867 2869 2871 2874 2879
2904 2901 2899 2896 2894 2892 2890 2886 2884 2881 2877 2874 2871 2870 2869 2867 2865 2866 2862 2862 2861 2861 2862 2863 2865 2867 2872
2894 2893 2891 2889 2888 2885 2883 2880 2878 2876 2872 2868 2866 2864 2863 2863 2860 2860 2859 2857 2857 2857 2858 2859 2861 2863 2867
2886 2884 2883 2881 2881 2879 2877 2874 2871 2870 2868 2865 2862 2859 2858 2857 2855 2854 2854 2854 2853 2853 2854 2856 2858 2861 2863
2877 2876 2874 2873 2872 2872 2870 2868 2865 2863 2862 2860 2858 2856 2853 2853 2850 2849 2850 2850 2850 2850 2850 2852 2854 2857 2860
2869 2867 2866 2865 2864 2864 2862 2861 2859 2857 2856 2855 2853 2851 2849 2848 2848 2846 2846 2847 2847 2847 2847 2847 2850 2853 2856
Wind_Speed
57 58 58 58 58 56 51 51 53 53 53 53 52 51 51 50 48 47 44 44 42 40 39 38 36 34 32
59 58 58 57 56 55 54 53 53 52 53 53 52 50 49 51 50 48 48 47 47 43 41 39 38 37 34
56 53 52 50 50 49 47 47 47 46 46 45 45 46 46 45 47 47 47 46 47 46 45 42 40 39 38
48 48 47 43 44 46 46 43 42 39 38 36 35 37 40 42 42 43 43 44 44 47 46 43 42 41 40
44 44 43 41 40 40 41 40 38 36 36 35 35 33 34 37 42 42 42 41 40 40 44 42 41 41 43
41 41 40 38 36 36 36 38 39 35 39 37 35 35 36 34 36 40 41 41 41 40 39 39 37 39 42
39 37 38 35 35 33 33 35 35 33 38 38 34 33 32 30 31 35 38 38 40 43 41 38 34 35 40
34 33 32 32 32 33 34 35 36 35 34 37 35 33 30 29 29 30 33 34 36 39 41 36 35 32 35
31 29 28 27 29 32 32 35 38 35 32 32 31 31 28 28 27 31 28 27 29 34 39 37 34 35 34
28 26 24 25 26 28 30 32 32 35 32 30 28 28 32 26 23 24 19 14 16 27 31 36 32 38 41
31 27 25 25 25 26 27 29 30 31 30 33 27 27 29 30 27 21 16 20 17 13 23 32 31 36 39
30 27 27 26 25 25 25 26 29 31 30 33 33 29 27 26 28 23 19 13 18 16 14 23 26 33 34
28 26 25 25 24 24 24 25 26 27 27 27 28 26 24 25 29 25 19 13 12 14 13 11 14 24 29
28 26 26 25 24 25 25 24 24 21 21 23 23 23 23 23 26 20 16 17 13 10 12 11 10 13 23
30 29 28 27 25 25 26 25 24 21 19 19 18 18 20 21 20 18 19 16 15 14 15 14 11 11 14
29 29 29 30 28 26 26 25 24 22 20 20 19 17 17 17 18 14 15 14 12 12 13 14 18 14 14
28 29 30 28 28 26 26 24 23 22 20 19 19 19 18 15 13 13 14 13 12 10 12 12 14 19 18
Wind_Direction
293 295 294 293 292 290 285 282 282 282 282 281 278 274 274 274 270 266 263 264 261 261 260 258 255 250 248
292 292 291 291 292 292 294 293 288 285 283 282 282 281 277 274 273 270 265 261 263 259 255 254 251 246 242
292 293 294 297 296 296 294 293 293 292 291 288 286 282 279 277 274 273 270 263 260 260 259 253 248 242 237
294 296 297 299 297 298 297 295 294 292 292 292 289 281 273 268 266 264 265 266 261 257 259 254 249 244 237
298 298 300 298 296 296 295 297 298 299 298 290 288 285 285 274 269 267 262 254 249 251 255 256 249 244 240
301 300 300 298 296 294 294 293 295 297 295 294 301 294 289 284 272 268 264 259 250 240 242 250 251 246 242
299 299 297 297 296 294 291 292 294 298 304 300 298 293 294 286 276 269 268 264 259 248 231 230 240 246 243
296 297 294 293 291 290 290 293 293 297 301 302 303 297 296 294 283 278 271 267 263 258 253 225 215 226 244
299 301 300 295 291 290 290 289 291 294 298 301 293 298 298 299 290 275 272 271 266 259 253 236 223 220 221
297 296 296 294 291 290 292 292 294 295 300 297 302 303 297 301 305 273 260 244 255 253 250 239 227 234 213
299 301 297 294 293 292 291 292 292 291 295 293 296 300 301 304 300 290 290 267 260 258 237 240 243 228 220
295 296 295 294 297 298 297 296 295 294 293 289 288 288 291 301 296 299 298 292 264 259 248 241 240 226 224
289 289 288 293 302 304 303 302 301 301 299 295 292 286 276 290 294 295 295 296 283 262 261 260 241 224 225
285 283 283 287 294 301 305 302 302 302 305 302 290 287 273 294 296 282 289 295 289 264 253 262 252 233 221
279 280 279 282 286 293 300 304 299 297 300 303 307 296 282 294 294 275 275 281 288 262 250 255 258 243 232
274 277 282 283 285 288 293 298 297 291 293 298 304 307 294 283 288 271 271 280 274 261 251 245 244 238 234
281 279 282 286 285 286 288 293 295 289 288 292 297 300 302 297 272 281 284 272 275 269 254 250 245 235 228